Tracking 28794 objects as of 19-Apr-2024
HD Live streaming from Space Station
objects crossing your sky now

TDRS 7

Track TDRS 7 now!
TDRS 7 is classified as:


NORAD ID: 23613
Int'l Code: 1995-035B
Perigee: 35,675.8 km
Apogee: 35,911.3 km
Inclination: 13.7 °
Period: 1,436.1 minutes
Semi major axis: 42164 km
RCS: 19.9526 m2 (large)
Launch date: July 13, 1995
Source: United States (US)
Launch site: AIR FORCE EASTERN TEST RANGE (AFETR)

Tracking and communications with space shuttle, other missions.
Your satellite tracking list
Your tracking list is empty




NASA's NSSDC Master Catalog

Two Line Element Set (TLE):
1 23613U 95035B   24110.58788973 -.00000203  00000-0  00000-0 0  9996
2 23613  13.7071 353.6447 0027930  64.0272  87.0636  1.00272487105344
Source of the keplerian elements: AFSPC